GW0819 Weather Reports


Display with metric or nautical units.
time (UTC)temp
F
wind
direction
speed
MPH
gust
MPH
rain 1hr
in
rain 24hr
in
rain mn
in
humidity
%
barometer
mb
20260506175543 64 246 14.0 23.0 0.00 0.00 0.00 34 1011.3
20260506175039 64 247 18.0 35.0 0.00 0.00 0.00 35 1011.4
20260506174538 64 240 21.0 30.0 0.00 0.00 0.00 34 1011.6
20260506174033 64 244 13.0 18.0 0.00 0.00 0.00 35 1011.5
20260506173532 62 256 15.0 25.0 0.00 0.00 0.00 36 1011.7
20260506173028 63 281 14.0 26.0 0.00 0.00 0.00 35 1011.7
20260506172526 63 257 14.0 19.0 0.00 0.00 0.00 35 1011.8
20260506172021 61 287 15.0 19.0 0.00 0.00 0.00 38 1012.0
20260506171519 62 271 9.0 22.0 0.00 0.00 0.00 37 1011.8
20260506171017 61 250 11.0 16.0 0.00 0.00 0.00 39 1011.8
20260506170514 61 274 9.0 16.0 0.00 0.00 0.00 40 1012.1
20260506170006 59 242 6.0 17.0 0.00 0.00 0.00 43 1012.1
20260506165504 60 240 13.0 17.0 0.00 0.00 0.00 42 1011.8
20260506165000 60 271 10.0 11.0 0.00 0.00 0.00 44 1011.8
20260506164457 59 104 2.0 11.0 0.00 0.00 0.00 49 1011.8
20260506163954 57 151 5.0 14.0 0.00 0.00 0.00 51 1012.1
20260506163449 58 239 9.0 16.0 0.00 0.00 0.00 51 1012.1
20260506162944 57 120 3.0 8.0 0.00 0.00 0.00 53 1012.3
20260506162442 56 145 4.0 15.0 0.00 0.00 0.00 56 1012.0
20260506161939 56 89 2.0 8.0 0.00 0.00 0.00 56 1012.0
20260506161437 56 139 12.0 13.0 0.00 0.00 0.00 59 1011.8
20260506160929 55 195 9.0 13.0 0.00 0.00 0.00 59 1012.0
20260506160426 53 206 12.0 14.0 0.00 0.00 0.00 62 1012.0
20260506155923 53 139 2.0 12.0 0.00 0.00 0.00 65 1012.2
20260506155420 53 201 10.0 13.0 0.00 0.00 0.00 65 1011.6
20260506153542 50 193 11.0 13.0 0.00 0.00 0.00 70 1011.8
20260506153039 50 181 7.0 14.0 0.00 0.00 0.00 71 1011.8
20260506152536 49 154 9.0 17.0 0.00 0.00 0.00 72 1011.8
20260506152035 49 158 13.0 16.0 0.00 0.00 0.00 73 1011.8
20260506151532 49 144 12.0 14.0 0.00 0.00 0.00 74 1011.8
20260506151029 48 162 9.0 12.0 0.00 0.00 0.00 76 1012.0
20260506150526 47 151 8.0 14.0 0.00 0.00 0.00 77 1012.0
20260506150023 47 165 8.0 13.0 0.00 0.00 0.00 77 1012.1
20260506145519 46 64 9.0 10.0 0.00 0.00 0.00 79 1012.0
20260506145017 46 152 6.0 9.0 0.00 0.00 0.00 80 1012.2
20260506144513 46 150 9.0 14.0 0.00 0.00 0.00 80 1012.2
20260506144011 45 166 5.0 11.0 0.00 0.00 0.00 82 1012.2
20260506143508 45 114 10.0 16.0 0.00 0.00 0.00 82 1012.2
20260506143007 45 109 11.0 15.0 0.00 0.00 0.00 83 1012.1
20260506142504 44 122 9.0 15.0 0.00 0.00 0.00 84 1012.2
20260506142002 44 113 9.0 11.0 0.00 0.00 0.00 86 1012.4
20260506141459 42 129 11.0 18.0 0.00 0.00 0.00 87 1012.2
20260506140958 43 152 14.0 15.0 0.00 0.00 0.00 87 1012.3
20260506140455 43 134 13.0 14.0 0.00 0.00 0.00 87 1012.2
20260506135951 42 105 9.0 16.0 0.00 0.00 0.00 88 1012.2
20260506135449 42 121 13.0 16.0 0.00 0.00 0.00 88 1012.2
20260506134944 42 138 13.0 18.0 0.00 0.00 0.00 88 1012.2
20260506134441 41 119 16.0 19.0 0.00 0.00 0.00 88 1012.0
20260506133938 42 129 14.0 14.0 0.00 0.00 0.00 88 1012.3
20260506133435 41 114 11.0 15.0 0.00 0.00 0.00 88 1012.1
20260506132931 41 132 16.0 22.0 0.00 0.00 0.00 88 1012.0
20260506132429 41 131 14.0 17.0 0.00 0.00 0.00 88 1012.0
20260506131926 41 129 14.0 19.0 0.00 0.00 0.00 88 1011.7
20260506131422 41 114 17.0 21.0 0.00 0.00 0.00 88 1011.5
20260506130920 41 108 14.0 20.0 0.00 0.00 0.00 89 1011.6
20260506130416 41 128 18.0 23.0 0.00 0.00 0.00 89 1011.6
20260506125914 41 127 18.0 20.0 0.00 0.00 0.00 89 1011.4
20260506125412 41 112 15.0 23.0 0.00 0.00 0.00 89 1011.5
20260506124910 41 128 16.0 19.0 0.00 0.00 0.00 89 1011.5
20260506124407 40 127 18.0 23.0 0.00 0.00 0.00 89 1011.4
20260506123905 40 110 14.0 21.0 0.00 0.00 0.00 89 1011.2
20260506123403 40 121 18.0 23.0 0.00 0.00 0.00 89 1011.3
20260506122900 40 110 15.0 18.0 0.00 0.00 0.00 89 1010.9
20260506122356 40 118 19.0 22.0 0.00 0.00 0.00 89 1010.9
20260506121855 40 112 17.0 18.0 0.00 0.00 0.00 89 1011.2
20260506121351 40 114 13.0 17.0 0.00 0.00 0.00 89 1011.2
20260506120848 40 117 15.0 17.0 0.00 0.00 0.00 89 1011.2
20260506120346 39 113 11.0 13.0 0.00 0.00 0.00 89 1011.3
20260506115843 39 95 6.0 9.0 0.00 0.00 0.00 89 1011.1
20260506115341 39 97 10.0 14.0 0.00 0.00 0.00 89 1011.1
20260506114839 39 70 6.0 7.0 0.00 0.00 0.00 89 1011.2
20260506114336 39 112 8.0 11.0 0.00 0.00 0.00 89 1010.8
20260506113835 39 91 5.0 8.0 0.00 0.00 0.00 89 1011.3
20260506113332 39 113 11.0 12.0 0.00 0.00 0.00 88 1011.3
20260506112829 39 87 7.0 11.0 0.00 0.00 0.00 88 1010.9
20260506112326 39 96 9.0 10.0 0.00 0.00 0.00 88 1010.9
20260506111823 39 101 8.0 10.0 0.00 0.00 0.00 88 1010.9
20260506111322 39 81 4.0 8.0 0.00 0.00 0.00 88 1011.1
20260506110819 39 84 6.0 9.0 0.00 0.00 0.00 88 1010.9
20260506110315 39 101 7.0 10.0 0.00 0.00 0.00 88 1010.7
20260506105812 39 84 6.0 10.0 0.00 0.00 0.00 88 1010.9
20260506105309 39 73 8.0 10.0 0.00 0.00 0.00 88 1011.2
20260506104807 39 83 11.0 11.0 0.00 0.00 0.00 88 1010.6
20260506104304 39 73 11.0 11.0 0.00 0.00 0.00 88 1010.7
20260506103801 39 78 9.0 11.0 0.00 0.00 0.00 88 1010.7
20260506103259 39 78 9.0 11.0 0.00 0.00 0.00 87 1010.7
20260506102756 38 65 8.0 12.0 0.00 0.00 0.00 87 1010.7
20260506102254 38 72 7.0 11.0 0.00 0.00 0.00 87 1010.7
20260506101751 39 54 9.0 13.0 0.00 0.00 0.00 87 1010.7
20260506101247 39 58 11.0 11.0 0.00 0.00 0.00 86 1010.5
20260506100745 39 38 9.0 13.0 0.00 0.00 0.00 86 1010.6
20260506100243 39 28 8.0 13.0 0.00 0.00 0.00 86 1010.6
20260506095742 39 63 12.0 18.0 0.00 0.00 0.00 86 1010.5
20260506095238 39 40 7.0 13.0 0.00 0.00 0.00 85 1010.3
20260506094735 39 54 7.0 12.0 0.00 0.00 0.00 85 1010.3
20260506094233 39 46 9.0 13.0 0.00 0.00 0.00 84 1010.4
20260506093731 39 52 11.0 13.0 0.00 0.00 0.00 84 1010.4
20260506093228 40 32 10.0 15.0 0.00 0.00 0.00 84 1010.3
20260506092726 40 46 10.0 14.0 0.00 0.00 0.00 83 1010.3
20260506092224 40 43 9.0 13.0 0.00 0.00 0.00 83 1010.1
20260506091721 40 52 12.0 16.0 0.00 0.00 0.00 82 1010.1
20260506091218 40 51 10.0 13.0 0.00 0.00 0.00 82 1010.1
20260506090716 40 21 7.0 13.0 0.00 0.00 0.00 82 1010.0
20260506090212 40 17 5.0 13.0 0.00 0.00 0.00 82 1010.3
20260506085709 41 24 8.0 11.0 0.00 0.00 0.00 81 1009.8
20260506085205 41 23 5.0 11.0 0.00 0.00 0.00 81 1009.8
20260506084702 41 27 7.0 13.0 0.00 0.00 0.00 81 1009.7
20260506084158 41 54 11.0 14.0 0.00 0.00 0.00 81 1009.5
20260506083655 42 56 10.0 14.0 0.00 0.00 0.00 80 1009.4
20260506083153 42 59 9.0 12.0 0.00 0.00 0.00 80 1009.2
20260506082650 43 60 11.0 14.0 0.00 0.00 0.00 80 1009.1
20260506082145 43 72 14.0 16.0 0.00 0.00 0.00 80 1008.8
20260506081643 43 81 12.0 17.0 0.00 0.00 0.00 80 1008.8
20260506081141 43 58 13.0 16.0 0.00 0.00 0.00 79 1008.9
20260506080638 43 75 13.0 16.0 0.00 0.00 0.00 79 1008.9
20260506080135 43 72 10.0 14.0 0.00 0.00 0.00 78 1008.8
20260506073119 45 60 12.0 19.0 0.00 0.00 0.00 76 1008.3
20260506072615 45 65 19.0 22.0 0.00 0.00 0.00 76 1008.3
20260506072113 45 67 13.0 23.0 0.00 0.00 0.00 75 1008.3
20260506071611 45 68 13.0 17.0 0.00 0.00 0.00 75 1008.4
20260506071108 46 74 11.0 15.0 0.00 0.00 0.00 75 1008.2
20260506070605 46 52 16.0 20.0 0.00 0.00 0.00 74 1008.3
20260506062039 49 80 4.0 7.0 0.00 0.00 0.00 70 1007.7
20260506061535 49 95 7.0 7.0 0.00 0.00 0.00 70 1007.8
20260506061033 50 317 3.0 6.0 0.00 0.00 0.00 70 1007.5
20260506060531 50 98 7.0 12.0 0.00 0.00 0.00 69 1007.5
20260506051000 52 104 13.0 19.0 0.00 0.00 0.00 64 1007.3
20260506050458 52 99 11.0 19.0 0.00 0.00 0.00 64 1007.3
20260506044948 53 98 15.0 16.0 0.00 0.00 0.00 62 1007.2
20260506044446 53 109 13.0 16.0 0.00 0.00 0.00 61 1007.4
20260506043942 53 98 14.0 16.0 0.00 0.00 0.00 61 1007.4
20260506043440 53 101 12.0 14.0 0.00 0.00 0.00 60 1007.3
20260506042937 53 98 12.0 21.0 0.00 0.00 0.00 60 1007.2
20260506042437 53 105 15.0 23.0 0.00 0.00 0.00 60 1007.4
20260506041934 53 108 15.0 21.0 0.00 0.00 0.00 59 1007.5
20260506041432 53 100 14.0 19.0 0.00 0.00 0.00 59 1007.7
20260506040929 53 103 16.0 19.0 0.00 0.00 0.00 59 1007.3
20260506040427 53 95 9.0 22.0 0.00 0.00 0.00 58 1007.1
20260506035922 54 102 17.0 21.0 0.00 0.00 0.00 58 1007.4
20260506035420 54 101 14.0 17.0 0.00 0.00 0.00 58 1007.4
20260506034917 54 76 13.0 19.0 0.00 0.00 0.00 58 1007.3
20260506034414 54 88 12.0 20.0 0.00 0.00 0.00 57 1007.2
20260506033911 54 88 10.0 19.0 0.00 0.00 0.00 56 1007.0
20260506033408 54 76 17.0 22.0 0.00 0.00 0.00 56 1007.0
20260506032905 55 92 18.0 21.0 0.00 0.00 0.00 55 1007.0
20260506032402 55 74 21.0 26.0 0.00 0.00 0.00 55 1006.3
20260506031858 55 79 19.0 25.0 0.00 0.00 0.00 55 1006.4
20260506031356 55 76 17.0 20.0 0.00 0.00 0.00 55 1006.3
20260506030853 55 82 18.0 25.0 0.00 0.00 0.00 55 1006.5
20260506030351 55 73 18.0 23.0 0.00 0.00 0.00 55 1006.4
20260506025848 55 64 17.0 24.0 0.00 0.00 0.00 55 1006.3
20260506025344 55 70 21.0 26.0 0.00 0.00 0.00 55 1006.3
20260506024841 56 79 18.0 22.0 0.00 0.00 0.00 55 1006.2
20260506024338 56 96 23.0 29.0 0.00 0.00 0.00 55 1006.2
20260506023834 56 72 17.0 20.0 0.00 0.00 0.00 55 1005.7
20260506023331 56 71 15.0 28.0 0.00 0.00 0.00 54 1005.8
20260506022828 57 73 20.0 28.0 0.00 0.00 0.00 53 1005.7
20260506022326 57 65 14.0 24.0 0.00 0.00 0.00 53 1005.8
20260506021824 58 71 18.0 26.0 0.00 0.00 0.00 52 1005.6
20260506021320 58 65 14.0 23.0 0.00 0.00 0.00 51 1005.4
20260506020817 59 56 27.0 32.0 0.00 0.00 0.00 50 1005.6
20260506020315 60 59 20.0 28.0 0.00 0.00 0.00 47 1005.5
20260506015813 61 58 9.0 17.0 0.00 0.00 0.00 46 1005.5
20260506015310 61 47 11.0 21.0 0.00 0.00 0.00 46 1005.4
20260506014806 62 36 15.0 21.0 0.00 0.00 0.00 43 1004.8
20260506014303 63 16 9.0 17.0 0.00 0.00 0.00 41 1005.0
20260506013800 64 359 13.0 17.0 0.00 0.00 0.00 40 1004.8
20260506013257 64 12 14.0 19.0 0.00 0.00 0.00 40 1004.8
20260506012753 64 358 11.0 22.0 0.00 0.00 0.00 43 1004.8
20260506012250 64 330 22.0 31.0 0.00 0.00 0.00 44 1004.7
20260506011748 64 335 21.0 31.0 0.00 0.00 0.00 44 1004.6
20260506011244 64 323 29.0 41.0 0.00 0.00 0.00 44 1004.7
20260506010743 65 323 25.0 37.0 0.00 0.00 0.00 42 1004.4
20260506010239 65 322 30.0 39.0 0.00 0.00 0.00 39 1004.7
20260506005737 67 349 24.0 30.0 0.00 0.00 0.00 36 1004.1
20260506005233 73 260 26.0 29.0 0.00 0.00 0.00 23 1003.7
20260506004729 74 259 29.0 34.0 0.00 0.00 0.00 22 1003.5
20260506004227 74 250 28.0 32.0 0.00 0.00 0.00 23 1003.3
20260506003722 74 247 28.0 31.0 0.00 0.00 0.00 24 1003.5
20260506003220 74 229 23.0 28.0 0.00 0.00 0.00 27 1003.2
20260506002715 74 231 20.0 28.0 0.00 0.00 0.00 27 1003.3
20260506002211 75 232 20.0 26.0 0.00 0.00 0.00 27 1003.1
20260506001708 75 242 25.0 30.0 0.00 0.00 0.00 27 1003.1
20260506001205 75 239 24.0 31.0 0.00 0.00 0.00 26 1002.9
20260506000702 75 240 17.0 23.0 0.00 0.00 0.00 26 1003.3
20260506000200 75 223 19.0 24.0 0.00 0.00 0.00 27 1003.0
20260505235657 75 246 15.0 20.0 0.00 0.00 0.00 26 1003.2
20260505235155 75 229 24.0 32.0 0.00 0.00 0.00 26 1003.0
20260505234651 75 233 14.0 22.0 0.00 0.00 0.00 27 1003.1
20260505234148 75 225 22.0 24.0 0.00 0.00 0.00 27 1003.3
20260505233645 76 240 23.0 23.0 0.00 0.00 0.00 27 1003.2
20260505233143 75 222 21.0 29.0 0.00 0.00 0.00 28 1003.2
20260505232640 75 226 19.0 23.0 0.00 0.00 0.00 27 1003.0
20260505232138 75 240 19.0 24.0 0.00 0.00 0.00 27 1003.0
20260505231634 75 225 18.0 22.0 0.00 0.00 0.00 27 1003.3
20260505231133 75 209 21.0 24.0 0.00 0.00 0.00 28 1003.3
20260505230631 75 213 24.0 26.0 0.00 0.00 0.00 27 1003.1
20260505230126 74 222 15.0 19.0 0.00 0.00 0.00 29 1003.3
20260505225623 74 230 14.0 19.0 0.00 0.00 0.00 30 1003.6
20260505225119 74 245 6.0 10.0 0.00 0.00 0.00 29 1003.5
20260505224616 74 205 7.0 9.0 0.00 0.00 0.00 30 1003.7
20260505224114 73 251 5.0 12.0 0.00 0.00 0.00 31 1003.6
20260505223611 73 181 7.0 13.0 0.00 0.00 0.00 31 1003.9
20260505223107 73 230 10.0 11.0 0.00 0.00 0.00 31 1003.8
20260505222603 73 242 6.0 10.0 0.00 0.00 0.00 31 1004.0
20260505222059 73 224 8.0 11.0 0.00 0.00 0.00 31 1004.0
20260505221557 73 214 8.0 13.0 0.00 0.00 0.00 31 1004.0
20260505221053 72 246 13.0 18.0 0.00 0.00 0.00 32 1004.3
20260505220550 72 218 12.0 17.0 0.00 0.00 0.00 31 1004.3
20260505220048 72 245 15.0 19.0 0.00 0.00 0.00 32 1004.4
20260505215546 72 198 8.0 15.0 0.00 0.00 0.00 32 1004.5
20260505215044 72 228 10.0 11.0 0.00 0.00 0.00 33 1004.3
20260505214542 72 225 13.0 15.0 0.00 0.00 0.00 32 1004.4
20260505214038 71 227 10.0 11.0 0.00 0.00 0.00 33 1004.6
20260505213536 72 234 9.0 10.0 0.00 0.00 0.00 32 1004.6
20260505213032 71 245 11.0 17.0 0.00 0.00 0.00 33 1004.7
20260505212528 72 255 14.0 16.0 0.00 0.00 0.00 33 1005.0
20260505212026 71 240 14.0 19.0 0.00 0.00 0.00 33 1004.8
20260505211523 71 268 10.0 12.0 0.00 0.00 0.00 34 1004.8
20260505211019 71 248 9.0 15.0 0.00 0.00 0.00 33 1005.3
20260505210516 71 214 12.0 12.0 0.00 0.00 0.00 33 1005.3
20260505210014 70 186 5.0 17.0 0.00 0.00 0.00 34 1005.0
20260505205512 70 239 4.0 13.0 0.00 0.00 0.00 35 1005.3
20260505205008 70 271 6.0 10.0 0.00 0.00 0.00 35 1006.0
20260505204506 71 269 7.0 12.0 0.00 0.00 0.00 34 1005.7
20260505204003 69 206 3.0 16.0 0.00 0.00 0.00 35 1006.1
20260505203459 70 259 15.0 16.0 0.00 0.00 0.00 35 1006.0
20260505202956 70 275 11.0 13.0 0.00 0.00 0.00 35 1006.2
20260505202453 69 254 21.0 23.0 0.00 0.00 0.00 36 1006.3
20260505201948 69 267 23.0 28.0 0.00 0.00 0.00 35 1006.3
20260505201446 69 254 24.0 38.0 0.00 0.00 0.00 37 1006.3
20260505200943 70 256 25.0 29.0 0.00 0.00 0.00 34 1006.5
20260505200441 70 256 19.0 20.0 0.00 0.00 0.00 32 1006.4
20260505195936 69 242 12.0 13.0 0.00 0.00 0.00 32 1006.2
20260505195434 69 236 10.0 16.0 0.00 0.00 0.00 32 1006.4
20260505194931 71 255 7.0 14.0 0.00 0.00 0.00 30 1006.3
20260505194428 70 220 12.0 12.0 0.00 0.00 0.00 31 1006.3
20260505193928 70 326 6.0 7.0 0.00 0.00 0.00 31 1006.4
20260505193426 69 31 2.0 7.0 0.00 0.00 0.00 32 1006.2
20260505192924 69 232 0.0 7.0 0.00 0.00 0.00 32 1006.5
20260505192422 71 117 7.0 8.0 0.00 0.00 0.00 31 1006.4
20260505191919 69 25 4.0 6.0 0.00 0.00 0.00 31 1006.4
20260505191418 69 78 9.0 10.0 0.00 0.00 0.00 32 1006.9
20260505190914 69 99 11.0 14.0 0.00 0.00 0.00 32 1006.7
20260505190409 68 96 11.0 11.0 0.00 0.00 0.00 32 1006.7
20260505185905 69 118 11.0 14.0 0.00 0.00 0.00 32 1006.6
20260505185402 68 326 5.0 11.0 0.00 0.00 0.00 32 1006.9
20260505184858 70 80 12.0 23.0 0.00 0.00 0.00 32 1006.6
20260505184355 68 284 3.0 10.0 0.00 0.00 0.00 32 1007.1
20260505183852 67 22 8.0 15.0 0.00 0.00 0.00 34 1007.0
20260505183349 68 69 12.0 15.0 0.00 0.00 0.00 33 1007.0
20260505182846 66 72 4.0 11.0 0.00 0.00 0.00 35 1007.2
20260505182343 67 117 14.0 15.0 0.00 0.00 0.00 34 1007.0
20260505181839 66 118 13.0 14.0 0.00 0.00 0.00 34 1007.2
20260505181336 66 50 4.0 8.0 0.00 0.00 0.00 34 1007.4
20260505180833 66 43 11.0 13.0 0.00 0.00 0.00 35 1007.3
20260505180330 67 25 6.0 9.0 0.00 0.00 0.00 34 1007.5